Location: Stoke Bliss
(52.2667°N, 2.5167°W)
Time: 18:28:12
(UTC+00:00)

Cosmos 2219 Rocket - Pass Details

Date: 03 March 2021
Orbit: 826 x 848 km, 71.0° (Epoch: 17 April)

Event Time Altitude Azimuth Distance (km) Brightness Sun altitude
Rises 21:07:39 0° 220° (SW) 3,359 5.4 -29.5°
Reaches altitude 10° 21:10:06 10° 224° (SW) 2,431 4.7 -29.8°
Maximum altitude 21:15:38 63° 305° (NW) 927 2.5 -30.5°
Drops below altitude 10° 21:21:14 10° 27° (NNE) 2,458 4.7 -31.2°
Sets 21:23:43 0° 31° (NNE) 3,399 5.4 -31.5°
